[[{"header":{"parameterUnit":"m.s-1","parameterCategory":1,"la1":30.2991,"la2":30.254,"lo1":-89.0895,"lo2":-89.0444,"dy":0.0017,"dx":0.0017,"nx":28,"ny":28,"refTime":"2024-10-19T09:00:00:Z","depth":0,"parameterNumber":2,"parameterNumberName":"U-component_of_WINDS"},"data":[0,0,0,0,0,0,0,0,0,0,0,0,0,0,0,0,0,0,0,0,0,0,0,0,0,0,0,0,0,0,0,0,0,0,0,0,0,0,0,0,0,0,0,0,0,0,0,0,0,0,0,0,0,0,0,0,0,0,-3.6861,-3.6862,0,-3.6955,-3.6956,-3.6957,-3.6849,-3.6845,-3.6841,-3.6837,-3.6936,-3.6943,-3.6949,0,0,0,0,0,0,0,0,0,0,0,0,0,-3.6589,-3.6594,-3.6861,-3.6862,-3.6863,-3.6955,-3.6956,-3.6958,-3.685,-3.6845,-3.684,-3.6836,-3.6934,-3.6942,-3.695,0,0,0,0,0,0,0,0,0,0,0,0,0,-3.6698,-3.6596,-3.6861,-3.6821,-3.6818,-3.6955,-3.6956,-3.6958,-3.6851,-3.6845,-3.6839,-3.6833,-3.6932,-3.6941,-3.6951,-3.7132,0,0,-3.698,-3.6984,0,0,0,0,0,0,0,0,-3.6692,-3.6708,-3.6825,-3.6824,-3.6821,-3.6884,-3.6897,-3.7017,-3.6853,-3.6839,-3.6837,-3.683,-3.6924,-3.6934,-3.6965,-3.7137,-3.7141,-3.6981,-3.6987,-3.6991,-3.6994,0,0,0,0,0,0,0,-3.6684,-3.6703,-3.6898,-3.6827,-3.6824,-3.6798,-3.6807,-3.6919,-3.6915,-3.6839,-3.6832,-3.6844,-3.6922,-3.6956,-3.6967,-3.7142,-3.6981,-3.6989,-3.6995,-3.6999,-3.7468,-3.7475,0,0,0,0,0,0,-3.6681,-3.6698,-3.6895,-3.6901,-3.674,-3.6808,-3.6818,-3.687,-3.6913,-3.6914,-3.6849,-3.6839,-3.6943,-3.6956,-3.697,-3.7186,-3.6991,-3.7,-3.7005,-3.7462,-3.747,-3.7477,0,0,0,0,0,0,-3.6676,-3.67,-3.6891,-3.6797,-3.682,-3.6819,-3.6879,-3.6875,-3.6909,-3.6921,-3.6919,-3.6885,-3.6938,-3.6956,-3.7093,-3.7188,-3.7004,-3.7013,-3.7454,-3.7464,-3.7473,-3.762,0,0,0,0,0,0,-3.6668,-3.6698,-3.6767,-3.68,-3.6825,-3.7013,-3.6885,-3.6881,-3.6926,-3.6913,-3.6954,-3.6955,-3.6935,-3.7079,-3.7102,-3.7198,-3.702,-3.7445,-3.7458,-3.747,-3.7606,-3.7633,-3.7657,0,0,0,0,0,-3.6659,-3.6805,-3.6771,-3.6796,-3.6911,-3.7018,-3.7033,-3.7007,-3.6934,-3.7004,-3.7011,-3.6954,-3.7173,-3.7094,-3.7119,-3.7219,-3.7439,-3.7455,-3.7469,-3.7595,-3.7628,-3.7656,0,0,0,0,0,0,-3.6784,-3.6808,-3.6771,-3.6932,-3.6974,-3.7,-3.7087,-3.7042,-3.7106,-3.7092,-3.7056,-3.7067,-3.7212,-3.7228,-3.714,-3.7397,-3.7294,-3.7315,-3.7381,-3.7413,-3.7438,-3.7431,-3.7028,0,0,0,0,0,-3.6831,-3.6915,-3.6932,-3.7072,-3.7095,-3.7088,-3.7133,-3.7109,-3.7151,-3.7169,-3.7186,-3.723,-3.7308,-3.7361,-3.7434,-3.7607,-3.7615,-3.7689,-3.7714,-3.7734,-3.7754,-3.7847,-3.7881,-3.7526,-3.7526,-3.7526,0,0,-3.6927,-3.6951,-3.7007,-3.7098,-3.7127,-3.7217,-3.7103,-3.7202,-3.7268,-3.7184,-3.7314,-3.7328,-3.7374,-3.7531,-3.76,-3.7549,-3.7853,-3.7754,-3.777,-3.7778,-3.7866,-3.79,-3.793,-3.7537,-3.7535,-3.7533,0,0,-3.7149,-3.7175,-3.7295,-3.7327,-3.7373,-3.7367,-3.7396,-3.7429,-3.7435,-3.7565,-3.7503,-3.7581,-3.7718,-3.7754,-3.779,-3.8025,-3.7975,-3.805,-3.8182,-3.8274,-3.8302,-3.8326,-3.8412,-3.8442,-3.8068,-3.8069,-3.8069,0,-3.7264,-3.7396,-3.7363,-3.7467,-3.7509,-3.7435,-3.7557,-3.759,-3.7658,-3.7689,-3.763,-3.78,-3.7826,-3.799,-3.8047,-3.8078,-3.8111,-3.8046,-3.83,-3.8324,-3.8347,-3.8428,-3.846,-3.8077,-3.8076,-3.8075,-3.8075,0,-3.7535,-3.7627,-3.7719,-3.7786,-3.7838,-3.795,-3.7935,-3.7992,-3.7963,-3.7964,-3.8097,-3.8125,-3.8203,-3.824,-3.8213,-3.84,-3.8367,-3.8305,-3.8201,-3.839,-3.8466,-3.8496,-3.809,-3.8087,-3.8084,-3.8082,0,0,-3.7841,-3.7887,-3.7922,-3.7951,-3.7996,-3.8067,-3.8176,-3.8252,-3.8302,-3.8351,-3.8442,-3.8559,-3.8502,-3.8543,-3.8519,-3.8599,-3.8786,-3.8527,-3.8528,-3.8576,-3.8995,-3.9043,-3.908,-3.8752,-3.8758,-3.8762,-3.8992,0,-3.8064,-3.8253,-3.8226,-3.8408,-3.8493,-3.8425,-3.8519,-3.8558,-3.8561,-3.8634,-3.8637,-3.8721,-3.8639,-3.8663,-3.8739,-3.8747,-3.887,-3.873,-3.8838,-3.8842,-3.883,-3.9119,-3.917,-3.9385,-3.9021,-3.9026,-3.903,0,-3.8351,-3.841,-3.8601,-3.8633,-3.8668,-3.8754,-3.8821,-3.8891,-3.8933,-3.893,-3.8976,-3.8937,-3.9047,-3.894,-3.9091,-3.8997,-3.9039,-3.905,-3.9057,-3.9068,-3.8949,-3.9139,-3.9453,-3.9486,-3.9076,-3.9072,-3.9069,0,-3.8557,-3.8684,-3.8814,-3.8842,-3.8882,-3.8944,-3.8964,-3.9,-3.9047,-3.9106,-3.9136,-3.9207,-3.9247,-3.9303,-3.9285,-3.9208,-3.9441,-3.9332,-3.9442,-3.9443,-3.9496,-3.9493,-3.9823,-3.9521,-3.952,-3.9519,-3.9519,0,-3.8811,-3.8931,-3.8907,-3.8988,-3.912,-3.9088,-3.922,-3.9231,-3.9264,-3.9346,-3.929,-3.9368,-3.9339,-3.9415,-3.9402,-3.953,-3.9548,-3.9549,-3.9544,-3.9555,-3.9555,-3.9584,-3.9569,-3.9528,-3.9526,-3.9524,-3.9523,0,-3.9064,-3.9053,-3.9191,-3.9217,-3.9227,-3.9323,-3.9346,-3.9422,-3.942,-3.9524,-3.9547,-3.9545,-3.9632,-3.9619,-3.9716,-3.9707,-3.9868,-3.9844,-3.9854,-3.9849,-3.9961,-3.9951,-4.0322,-4.037,-4.0035,-4.0038,-4.0041,0,-3.9228,-3.9318,-3.9354,-3.9405,-3.9429,-3.9511,-3.9559,-3.953,-3.9582,-3.9637,-3.9707,-3.9789,-3.9853,-3.9996,-4.0004,-4.0078,-4.0057,-4.0181,-4.0068,-4.0076,-4.0061,-4.0056,-4.0066,-4.0205,-4.0209,-4.0212,-4.0214,0,-3.952,-3.951,-3.958,-3.965,-3.9708,-3.9762,-3.9809,-3.9854,-3.983,-3.9892,-3.998,-4.003,-4.0129,-4.0212,-4.0281,-4.0301,-4.0256,-4.025,-4.0279,-4.0292,-4.0295,-4.0297,-3.9917,-4.0242,-4.0239,-4.0237,-4.0236,-4.0234,-3.9734,-3.9812,-3.9849,-3.993,-3.9963,-4.0009,-4.0081,-4.0088,-4.0161,-4.0239,-4.0218,-4.0319,-4.0358,-4.0447,-4.0475,-4.0554,-4.0508,-4.0551,-4.0562,-4.0573,-4.0587,-4.0281,-4.0566,-4.0565,-4.0564,-4.0564,-4.0563,0,-4.0025,-4.0045,-4.012,-4.0188,-4.0252,-4.0201,-4.0251,-4.0308,-4.0397,-4.0438,-4.0502,-4.0604,-4.0684,-4.0697,-4.0773,-4.0834,-4.0814,-4.0855,-4.0851,-4.0857,-4.0623,-4.0591,-4.0869,-4.0869,-4.0869,-4.0869,-4.0869,-4.0869,-4.0184,-4.0312,-4.0307,-4.0451,-4.0471,-4.0568,-4.0602,-4.0644,-4.0676,-4.0792,-4.0858,-4.0866,-4.0896,-4.0974,-4.1045,-4.1047,-4.1078,-4.1128,-4.1122,-4.0904,-4.0873,-4.0844,-4.0813,-4.1135,-4.1135,-4.1349,-4.1351,-4.1353]},{"header":{"parameterUnit":"m.s-1","parameterCategory":1,"la1":30.2991,"la2":30.254,"lo1":-89.0895,"lo2":-89.0444,"dy":0.0017,"dx":0.0017,"nx":28,"ny":28,"refTime":"2024-10-19T09:00:00:Z","depth":0,"parameterNumber":3,"parameterNumberName":"V-component_of_WINDS"},"data":[0,0,0,0,0,0,0,0,0,0,0,0,0,0,0,0,0,0,0,0,0,0,0,0,0,0,0,0,0,0,0,0,0,0,0,0,0,0,0,0,0,0,0,0,0,0,0,0,0,0,0,0,0,0,0,0,0,0,-4.6451,-4.6451,0,-4.6478,-4.6478,-4.6479,-4.6407,-4.6404,-4.6402,-4.64,-4.6425,-4.6428,-4.643,0,0,0,0,0,0,0,0,0,0,0,0,0,-4.6333,-4.6336,-4.6451,-4.6451,-4.6452,-4.6478,-4.6478,-4.6479,-4.6407,-4.6404,-4.6402,-4.6399,-4.6424,-4.6427,-4.6431,0,0,0,0,0,0,0,0,0,0,0,0,0,-4.6375,-4.6337,-4.6451,-4.6419,-4.6417,-4.6478,-4.6478,-4.6479,-4.6408,-4.6404,-4.6401,-4.6398,-4.6423,-4.6427,-4.6431,-4.6523,0,0,-4.6444,-4.6445,0,0,0,0,0,0,0,0,-4.6372,-4.6379,-4.6423,-4.6421,-4.6419,-4.6436,-4.6446,-4.6494,-4.6409,-4.6411,-4.64,-4.6396,-4.6431,-4.6434,-4.6447,-4.6525,-4.6526,-4.6444,-4.6446,-4.6448,-4.6449,0,0,0,0,0,0,0,-4.637,-4.6377,-4.6461,-4.6424,-4.6421,-4.6402,-4.6404,-4.6455,-4.6439,-4.6411,-4.6405,-4.641,-4.6429,-4.6443,-4.6447,-4.6526,-4.6444,-4.6448,-4.645,-4.6452,-4.6679,-4.6682,0,0,0,0,0,0,-4.6371,-4.6376,-4.6461,-4.6462,-4.6387,-4.6407,-4.641,-4.6434,-4.6439,-4.6436,-4.6413,-4.6406,-4.6437,-4.6442,-4.6447,-4.6554,-4.6448,-4.6452,-4.6454,-4.6675,-4.668,-4.6684,0,0,0,0,0,0,-4.6369,-4.638,-4.646,-4.6418,-4.6426,-4.6413,-4.644,-4.6436,-4.6449,-4.644,-4.6437,-4.643,-4.6435,-4.6441,-4.6505,-4.6554,-4.6454,-4.6458,-4.6671,-4.6677,-4.6682,-4.677,0,0,0,0,0,0,-4.6366,-4.6379,-4.6415,-4.6419,-4.6429,-4.6518,-4.6443,-4.6439,-4.6457,-4.6449,-4.6455,-4.6453,-4.6433,-4.6499,-4.6509,-4.6558,-4.6461,-4.6667,-4.6674,-4.668,-4.6763,-4.6778,-4.6791,0,0,0,0,0,-4.6362,-4.6439,-4.6418,-4.6428,-4.6474,-4.6521,-4.6527,-4.6503,-4.6462,-4.6497,-4.649,-4.6453,-4.6548,-4.6506,-4.6517,-4.6568,-4.6663,-4.6672,-4.668,-4.6756,-4.6775,-4.6791,0,0,0,0,0,0,-4.6441,-4.6439,-4.6415,-4.6496,-4.6509,-4.6509,-4.6553,-4.6523,-4.6548,-4.6539,-4.6507,-4.6509,-4.6578,-4.6579,-4.6533,-4.6656,-4.6598,-4.6609,-4.6653,-4.6671,-4.6684,-4.6682,-4.6464,0,0,0,0,0,-4.6468,-4.6507,-4.6503,-4.6574,-4.6583,-4.6567,-4.6586,-4.6567,-4.6579,-4.6584,-4.6582,-4.6595,-4.6627,-4.6649,-4.6678,-4.6763,-4.6762,-4.6803,-4.6817,-4.6829,-4.6838,-4.6881,-4.6898,-4.671,-4.671,-4.671,0,0,-4.6523,-4.6527,-4.6554,-4.659,-4.6598,-4.6639,-4.6572,-4.6618,-4.6647,-4.6591,-4.665,-4.665,-4.6661,-4.6735,-4.6768,-4.6738,-4.689,-4.6839,-4.6848,-4.6851,-4.6891,-4.6909,-4.6925,-4.6715,-4.6714,-4.6714,0,0,-4.6645,-4.6653,-4.6712,-4.6722,-4.6735,-4.6724,-4.6738,-4.6742,-4.674,-4.6799,-4.6757,-4.6791,-4.6848,-4.6857,-4.687,-4.6994,-4.696,-4.7004,-4.7077,-4.712,-4.7134,-4.7147,-4.719,-4.7206,-4.7014,-4.7014,-4.7014,0,-4.6712,-4.6772,-4.6746,-4.6795,-4.6811,-4.6763,-4.6822,-4.6832,-4.6854,-4.6866,-4.6833,-4.6902,-4.6907,-4.6981,-4.7011,-4.7024,-4.7038,-4.7003,-4.7135,-4.7147,-4.7159,-4.7199,-4.7216,-4.7019,-4.7018,-4.7018,-4.7017,0,-4.6853,-4.6895,-4.6942,-4.6965,-4.6986,-4.704,-4.7021,-4.7045,-4.7024,-4.7016,-4.7076,-4.708,-4.7108,-4.7124,-4.7104,-4.7196,-4.7177,-4.714,-4.7081,-4.7183,-4.722,-4.7235,-4.7027,-4.7025,-4.7023,-4.7022,0,0,-4.7025,-4.7032,-4.705,-4.7059,-4.7069,-4.7101,-4.7152,-4.718,-4.7201,-4.7218,-4.7259,-4.7307,-4.7273,-4.7287,-4.7266,-4.7304,-4.74,-4.7262,-4.7261,-4.7286,-4.75,-4.7527,-4.7546,-4.7378,-4.7381,-4.7383,-4.7499,0,-4.7144,-4.7232,-4.7209,-4.7296,-4.7334,-4.7288,-4.7331,-4.7342,-4.7336,-4.7366,-4.7358,-4.7393,-4.7345,-4.7353,-4.7388,-4.7381,-4.7442,-4.7373,-4.7414,-4.7416,-4.7411,-4.7565,-4.7594,-4.7703,-4.7513,-4.7516,-4.7518,0,-4.7294,-4.7317,-4.7408,-4.7411,-4.7426,-4.7466,-4.7489,-4.7519,-4.753,-4.7522,-4.7538,-4.751,-4.7558,-4.7499,-4.7564,-4.7517,-4.7533,-4.7532,-4.7536,-4.7537,-4.7472,-4.757,-4.7738,-4.7754,-4.7541,-4.7539,-4.7537,0,-4.7409,-4.7462,-4.7523,-4.7532,-4.7538,-4.7566,-4.757,-4.7577,-4.7595,-4.7616,-4.7627,-4.7652,-4.7666,-4.7686,-4.7665,-4.7625,-4.7733,-4.7673,-4.7727,-4.7727,-4.7751,-4.775,-4.7922,-4.7763,-4.7763,-4.7763,-4.7763,0,-4.7543,-4.76,-4.7574,-4.7611,-4.7673,-4.7646,-4.7707,-4.7705,-4.7712,-4.7747,-4.7709,-4.7742,-4.7713,-4.7743,-4.7727,-4.7783,-4.779,-4.7784,-4.7779,-4.7787,-4.7787,-4.7796,-4.7787,-4.7767,-4.7766,-4.7765,-4.7765,0,-4.7681,-4.7666,-4.7729,-4.7729,-4.773,-4.7776,-4.7775,-4.7809,-4.7799,-4.7844,-4.7853,-4.7838,-4.7872,-4.7853,-4.7888,-4.7877,-4.7949,-4.7934,-4.7945,-4.7941,-4.7995,-4.799,-4.8178,-4.8201,-4.8029,-4.8031,-4.8032,0,-4.7767,-4.781,-4.7815,-4.7836,-4.7842,-4.7876,-4.7894,-4.7869,-4.7889,-4.7904,-4.7935,-4.7966,-4.7989,-4.8045,-4.8036,-4.8062,-4.8047,-4.8111,-4.805,-4.8057,-4.8046,-4.8043,-4.8047,-4.8123,-4.8125,-4.8126,-4.8128,0,-4.7921,-4.7912,-4.794,-4.7965,-4.7988,-4.8007,-4.8022,-4.8041,-4.8016,-4.8041,-4.8075,-4.8093,-4.8128,-4.8158,-4.818,-4.8182,-4.8151,-4.8147,-4.8161,-4.8169,-4.8173,-4.817,-4.7977,-4.8143,-4.8141,-4.814,-4.8139,-4.8139,-4.8035,-4.807,-4.8079,-4.8111,-4.812,-4.8135,-4.8166,-4.816,-4.8189,-4.8216,-4.8199,-4.8239,-4.8247,-4.8273,-4.8279,-4.8309,-4.8283,-4.8304,-4.8308,-4.8313,-4.832,-4.817,-4.8313,-4.8313,-4.8313,-4.8312,-4.8312,0,-4.8186,-4.8189,-4.8219,-4.8241,-4.8266,-4.8235,-4.825,-4.8273,-4.8309,-4.8319,-4.8342,-4.8381,-4.841,-4.8404,-4.843,-4.8455,-4.8441,-4.8462,-4.846,-4.846,-4.8343,-4.8328,-4.8473,-4.8473,-4.8473,-4.8473,-4.8473,-4.8473,-4.8267,-4.8324,-4.8315,-4.8376,-4.8378,-4.8417,-4.8429,-4.8442,-4.8449,-4.8495,-4.8519,-4.8515,-4.8518,-4.8544,-4.8568,-4.8566,-4.8576,-4.8603,-4.8595,-4.8485,-4.8469,-4.8454,-4.8439,-4.8606,-4.8606,-4.871,-4.8711,-4.8712]}]]